THOR ABLESTAR DEB, 3124

Orbit data source: Space-Track

THOR ABLESTAR DEB, 3124 is space debris in LEO originally from a launch on Thu, 29 Jun 1961 UTC launched from the Air Force Eastern Test Range (AFETR). Debris objects in space refer to the collection of defunct objects orbiting the Earth. Examples of debris include non-operational satellites, rocket bodies, and fragments generated from explosions, collisions, or faulty payload assembly.

Loading next visibility...
Identifier
3124, 1961-015HX
Orbit
LEO
Country
Flag of USUS
Related business
Manufacturer
Unknown
Mission
Spacecraft
Bus & Motor
Unknown
Mass
Unknown
Launch date (UTC)
1961-06-29 (64 years ago)
Launch vehicle
Unknown
Launch site
Air Force Eastern Test Range (AFETR)
Object type
Payload
Rocket body
Debris
Shape & HBR
Unknown shape, 0.1 m
Radar Cross Section
Small (<0.1 m²)

Expand to show TLE details & history
Last TLE update: 16 hours ago

TLE from 16 hours ago
0 THOR ABLESTAR DEB
1 03124U 61015HX  25308.75060490  .00003167  00000-0  32278-2 0  9993
2 03124  66.9876  77.4714 0326371 236.2624 120.6946 13.56860863138681
Epoch: 2025-11-04T18:00Z
TLE epoch observation values (Epoch: 2025-11-04T18:00:52.263Z)
Latitude
-0.00002°
Longitude
123.02049°
Altitude
1,178.598 km
Speed
7.201 km/s
True Right ascension
05h 09m 53s
True Declination
0° 00' 00"
Sunlit
Object was in full shadow at epoch
Visualization orbit readout
Latitude
Unknown
Longitude
Unknown
Altitude
Unknown
Speed
Unknown
Apparent Right ascension
Unknown
Apparent Declination
Unknown
Sunlit
N/A
Visualization observer readout
Local Sidereal Time
06:20:14
Azimuth
Unknown
Elevation
Unknown
Doppler factor
Unknown
Orbital elements
Apogee altitude
1,287.805 km
Perigee altitude
803.232 km
Semi-major axis
7,423.656 km
Eccentricity
0.03264
Inclination
66.9876°
RAAN
77.4714°
Arg. of periapsis
236.2624°
True anomaly
123.84333°
Mean anomaly
120.6946°
Eccentric anomaly
122.27564°
Mean motion
3.39325 °/min
Orbital period
106.09 mins
BSTAR
0.0032278

Documentation

Showing up to 5 results
|